Location: Fort Wayne
(41.1310°N, 85.1290°W)
Time: 23:01:30
(UTC-05:00)

SR - Visible Passes

Search period start: 26 February 2015 00:00
Search period end: 08 March 2015 00:00
Orbit: 584 x 879 km, 66.7° (Epoch: 23 February)

Date Brightness Start Highest point End Pass type
(mag) Time Alt. Az. Time Alt. Az. Time Alt. Az.
26 Feb ? 06:05:27 10° SE 06:07:04 12° ESE 06:08:59 10° E visible
28 Feb ? 06:07:26 10° SSE 06:11:33 24° ESE 06:15:33 10° ENE visible
01 Mar ? 05:21:33 10° SE 05:23:03 11° ESE 05:24:50 10° E visible
02 Mar ? 06:11:03 10° S 06:16:06 47° ESE 06:20:48 10° NE visible
03 Mar ? 05:23:26 10° SSE 05:27:31 24° ESE 05:31:28 10° ENE visible
04 Mar ? 04:37:38 10° ESE 04:39:00 11° ESE 04:40:41 10° E visible
04 Mar ? 06:15:27 10° SSW 06:20:43 87° WNW 06:25:33 10° NNE visible
05 Mar ? 05:27:02 10° S 05:32:03 47° ESE 05:36:42 10° NE visible
06 Mar ? 04:39:26 10° SSE 04:43:27 23° ESE 04:47:22 10° ENE visible
06 Mar ? 06:20:28 10° SW 06:25:25 44° NW 06:29:58 10° NNE visible
07 Mar ? 03:53:43 10° ESE 03:54:56 11° ESE 03:56:27 10° E visible
07 Mar ? 05:32:47 18° SSW 05:36:38 87° WNW 05:41:26 10° NNE visible
